Location: Invercargill
(46.4000°S, 168.3500°E)
Time: 09:10:02
(UTC+12:00)

Transit 4A - Visible Passes

Search period start: 18 July 2019 00:00
Search period end: 28 July 2019 00:00
Orbit: 862 x 982 km, 66.8° (Epoch: 17 July)

Date Brightness Start Highest point End Pass type
(mag) Time Alt. Az. Time Alt. Az. Time Alt. Az.
18 Jul 10.1 19:00:38 10° SSW 19:01:07 10° S 19:01:36 10° S visible
18 Jul 10.3 20:47:44 10° S 20:47:48 10° S 20:47:48 10° S visible
19 Jul 10.3 20:56:49 10° S 20:56:58 10° S 20:56:58 10° S visible
20 Jul 10.3 21:05:56 10° SSW 21:06:09 11° SSW 21:06:09 11° SSW visible
21 Jul 9.9 19:30:01 10° S 19:31:08 10° S 19:31:50 10° SSE visible
21 Jul 10.3 21:15:05 10° SSW 21:15:21 11° SSW 21:15:21 11° SSW visible
22 Jul 9.9 19:38:58 10° S 19:41:02 12° SSE 19:41:02 12° SSE visible
22 Jul 10.4 21:24:15 10° SSW 21:24:33 11° SSW 21:24:33 11° SSW visible
23 Jul 9.8 19:48:01 10° S 19:50:16 14° SSE 19:50:16 14° SSE visible
23 Jul 10.4 21:33:27 10° SSW 21:33:47 12° SSW 21:33:47 12° SSW visible
24 Jul 9.7 19:57:07 10° SSW 19:59:31 16° SSE 19:59:31 16° SSE visible
24 Jul 10.4 21:42:42 10° SSW 21:43:02 12° SSW 21:43:02 12° SSW visible
25 Jul 9.6 20:06:15 10° SSW 20:08:48 18° S 20:08:48 18° S visible
25 Jul 10.5 21:52:00 10° SSW 21:52:19 12° SSW 21:52:19 12° SSW visible
26 Jul 9.8 18:30:12 10° S 18:31:46 11° SSE 18:33:19 10° SSE visible
26 Jul 9.4 20:15:24 10° SSW 20:18:07 21° S 20:18:07 21° S visible
26 Jul 10.5 22:01:21 10° SW 22:01:39 12° SW 22:01:39 12° SW visible
27 Jul 9.7 18:39:13 10° S 18:41:42 13° SSE 18:43:57 10° SE visible
27 Jul 9.3 20:24:35 10° SSW 20:27:28 25° S 20:27:28 25° S visible
27 Jul 10.6 22:10:48 10° SW 22:11:00 11° SW 22:11:00 11° SW visible
